Regional Weather Roundup
Issued by NWS

Home | Current Version | Previous Version | Text Only | Print | Product List | Glossary Off
Versions: 1 2 3 4 5 6 7 8 9 10 11 12 13 14 15 16 17 18 19 20 21 22 23 24 25 26 27 28 29 30 31 32 33 34 35 36 37 38 39 40 41 42 43 44 45 46 47 48 49 50

000
ASUS43 KIND 242309
RWRIN

WEATHER ROUNDUP FOR INDIANA
NATIONAL WEATHER SERVICE INDIANAPOLIS IN
700 PM EDT THU JUL 24 2014

NOTE: "FAIR" INDICATES FEW OR NO CLOUDS BELOW 12,000 FEET WITH NO
SIGNIFICANT WEATHER AND/OR OBSTRUCTIONS TO VISIBILITY.

* - STATION DOES NOT REPORT WEATHER SUCH AS PRECIPITATION OR FOG.

+ - STATION NOT QUALITY CONTROLLED BY THE NATIONAL WEATHER SERVICE.
    USE DATA WITH CAUTION...ESPECIALLY DEWPOINT AND RELATIVE
    HUMIDITY OBSERVATIONS.

INZ001>003-010>013-019-020-250000-
NORTHWEST INDIANA

CITY           SKY/WX    TMP DP  RH WIND       PRES   REMARKS
GARY /AIRPORT/ MOSUNNY   70  52  52 NE7       30.10S
KNOX *+        SUNNY     72  55  54 NW8       30.08R
LA PORTE +     SUNNY     69  52  54 NW9       30.11R
MICHIGAN CITY+ SUNNY     66  50  55 N6        30.10S
MONTICELLO +   SUNNY     71  56  60 CALM      30.06R
RENSSELAER +   PTSUNNY   73  54  49 NE3       30.08S
VALPARAISO     SUNNY     71  53  52 N7        30.10R

$$

LMZ046-743>745-250000-
SOUTHERN LAKE MICHIGAN

STATION/POSITION TIME  TEMP WIND        PRES
                       AIR  DIR/SP/G
                 (UTC) (F)  (DEG/KT/KT) (MB)
BURNS HARBOR     2300   66   30/  8/  9 1020.0S
MICHIGAN CITY    2300   66  340/  9/ 11   N/A

$$

INZ004-005-014>016-021>024-250000-
NORTH CENTRAL INDIANA

CITY           SKY/WX    TMP DP  RH WIND       PRES   REMARKS
GOSHEN         MOSUNNY   72  52  49 NE5       30.06F
LOGANSPORT +   SUNNY     68  55  64 CALM      30.07S
PERU/GRISSOM   PTSUNNY   74  55  50 N7        30.06F
ROCHESTER +    PTSUNNY   77  50  38 NE6       30.07S
SOUTH BEND     SUNNY     72  52  49 NW13      30.09R
WARSAW +       SUNNY     72  52  49 NE3       30.06F

$$

INZ006>009-017-018-025>027-250000-
NORTHEAST INDIANA

CITY           SKY/WX    TMP DP  RH WIND       PRES   REMARKS
ANGOLA *+      SUNNY     72  48  43 N3        30.07S
AUBURN +       SUNNY     72  46  40 NW3       30.06S
FORT WAYNE     PTSUNNY   73  51  46 SE7       30.06S
HUNTINGTON +   CLOUDY    73  53  49 SE3       30.05S

$$

INZ028-029-035-036-043>045-051>053-250000-
WEST CENTRAL INDIANA

CITY           SKY/WX    TMP DP  RH WIND       PRES   REMARKS
GREENCASTLE +  MOSUNNY   72  54  53 NE3       30.06S
LAFAYETTE      MOSUNNY   75  52  44 N3        30.06S
TERRE HAUTE    SUNNY     77  58  51 N5        30.05R

$$

INZ030>032-037>040-046>048-054>057-064-065-250000-
CENTRAL INDIANA

CITY           SKY/WX    TMP DP  RH WIND       PRES   REMARKS
CP ATTERBURY + MOSUNNY   73  52  46 N6        30.05S
COLUMBUS       MOSUNNY   73  52  46 N8        30.04F
INDIANAPOLIS   MOSUNNY   75  50  41 N9        30.04S
-EAGLE CREEK   MOSUNNY   74  51  44 NE6       30.05S
KOKOMO *+      SUNNY     75  52  43 NE5       30.05F
MARION +       MOSUNNY   71  52  51 CALM      30.05F
MT COMFORT *+  SUNNY     73  55  53 N5        30.06S
SHELBYVILLE    MOSUNNY   77  55  46 NE3       30.04F
ZIONSVILLE +   CLOUDY    74  50  42 E6        30.06F

$$

INZ033-034-041-042-049-050-058-059-250000-
EAST CENTRAL INDIANA

CITY           SKY/WX    TMP DP  RH WIND       PRES   REMARKS
MUNCIE         MOSUNNY   73  50  44 E6        30.05F

$$

INZ060-061-067>069-081>083-085>088-250000-
SOUTHWEST INDIANA

CITY           SKY/WX    TMP DP  RH WIND       PRES   REMARKS
EVANSVILLE     SUNNY     80  54  40 NE8       30.02F
HUNTINGBURG *+ MOSUNNY   77  55  47 E9        30.02F
WASHINGTON +   SUNNY     76  58  53 NE6       30.03S

$$

INZ062-063-066-070>080-084-089>092-250000-
SOUTH CENTRAL AND SOUTHEAST INDIANA

CITY           SKY/WX    TMP DP  RH WIND       PRES   REMARKS
BEDFORD +      PTSUNNY   75  48  38 NE6       30.04
BLOOMINGTON    MOSUNNY   75  52  44 NE8       30.05S
SEYMOUR +      SUNNY     72  34  25 NE7       30.03

$$



USA.gov is the U.S. government's official web portal to all federal, state and local government web resources and services.